Wind_Speed
15 15 15 16 16 17 17 17 17 16 16 18 18 19 19 19 19 19 19 19 19 18 18 18 19 19 19 19 19 19 19 19 19 19 19 19 18 18
17 17 17 17 18 19 19 19 20 20 19 19 19 20 20 20 20 20 20 21 21 20 19 20 21 21 21 21 21 21 21 21 21 20 20 20 19 19
19 19 19 19 20 21 21 21 21 21 20 20 21 20 21 21 21 22 22 22 21 22 22 21 21 21 22 22 22 22 22 22 21 21 21 21 20 20
21 21 21 21 21 22 22 23 23 23 22 21 21 21 22 22 22 23 24 25 24 24 24 23 23 23 23 23 23 23 23 23 23 22 21 21 21 20
23 23 23 23 23 23 23 22 22 23 23 22 22 23 23 23 24 24 24 25 25 25 25 25 25 25 24 23 23 23 24 24 23 23 22 22 21 21
24 24 24 24 24 23 23 24 24 24 23 23 23 24 24 24 23 23 23 24 26 26 26 25 25 25 24 24 24 25 25 24 24 24 23 23 22 22
26 26 25 25 25 25 25 25 25 25 24 24 24 24 24 24 24 24 24 23 24 26 26 26 26 25 25 24 24 25 25 24 24 24 24 24 23 23
27 27 26 25 26 26 26 26 26 26 25 25 25 25 25 25 25 25 25 25 25 25 26 26 26 25 25 25 25 25 25 24 24 24 24 24 24 24
27 27 27 26 27 27 27 28 27 27 26 26 27 26 25 25 26 26 26 26 26 26 26 26 27 27 26 26 26 26 26 26 25 25 24 24 24 24
27 27 27 27 27 28 28 29 29 28 28 28 28 28 27 27 27 27 27 27 27 27 27 27 27 28 28 27 27 27 28 27 27 26 26 26 26 26
27 28 28 28 28 29 29 29 30 29 29 29 28 28 28 28 28 28 28 28 28 28 29 28 28 28 28 28 29 29 28 28 28 28 28 28 28 28
28 29 29 29 29 29 29 29 29 29 28 28 29 29 29 29 29 29 29 30 29 29 30 30 30 30 29 28 29 29 30 29 29 29 29 29 29 29
29 29 29 29 29 29 29 28 28 29 28 28 29 28 28 29 29 30 30 30 30 30 30 31 30 30 30 30 29 29 30 30 30 29 29 29 29 28
29 29 28 28 29 29 29 29 29 30 30 29 29 29 29 29 29 29 30 30 31 31 31 31 31 31 31 31 30 29 30 29 29 28 27 27 27 27
29 28 28 28 29 29 29 30 30 30 30 30 30 30 30 30 30 30 29 29 30 30 30 31 31 31 31 30 30 29 30 30 30 29 28 27 27 27
28 28 28 28 28 29 29 29 30 30 30 31 30 30 30 31 31 30 30 30 30 30 30 30 30 30 29 29 29 29 29 30 29 29 29 28 28 28
29 28 28 29 29 29 29 29 29 29 29 29 30 30 29 30 31 31 31 31 32 31 31 30 30 31 30 30 29 29 29 28 29 29 30 29 28 28
29 29 29 29 29 29 28 28 29 29 29 29 29 29 29 30 30 31 32 31 31 31 30 30 30 31 31 30 30 29 29 28 29 30 30 30 29 29
30 29 29 28 28 28 28 28 28 28 27 27 27 28 29 30 30 30 31 31 29 29 30 30 31 31 31 31 30 31 31 31 31 31 30 30 29 29
30 30 30 29 29 29 29 29 28 27 26 27 27 28 28 28 28 28 28 29 29 29 29 30 30 31 31 31 31 31 31 31 32 31 30 30 29 29
29 30 29 29 28 28 28 28 27 26 26 26 26 27 27 27 28 27 27 28 28 28 28 28 29 30 30 31 31 31 31 31 31 31 30 30 29 28
28 29 28 28 27 27 27 27 26 26 26 26 27 27 27 27 27 27 27 27 27 27 28 28 29 29 29 30 30 30 31 30 30 30 29 29 28 28
28 28 28 27 27 27 26 26 26 26 26 26 26 27 27 26 25 26 27 27 27 27 28 28 28 29 29 29 29 29 29 30 30 29 28 28 29 29
Wind_Direction
292 291 291 291 291 290 291 293 292 290 286 280 278 275 273 271 270 268 268 267 266 265 267 269 270 270 270 270 271 273 275 276 278 280 281 280 281 283
297 297 293 289 289 288 288 289 291 290 289 286 281 278 274 271 269 267 268 269 267 267 268 270 270 270 270 270 271 272 274 276 277 278 280 279 279 279
296 295 294 294 290 288 287 288 288 288 288 286 283 280 276 274 271 268 266 266 266 265 266 268 269 270 270 270 270 271 272 274 276 277 277 279 280 277
295 295 294 294 293 291 289 288 287 286 283 282 282 281 279 276 272 271 267 265 265 266 264 265 267 267 268 269 269 269 270 273 276 276 277 279 280 277
293 294 293 292 292 291 290 289 289 287 285 281 280 281 282 280 275 273 270 266 266 266 265 265 265 265 266 267 268 268 270 272 273 275 277 278 277 275
292 293 292 292 292 291 289 287 287 287 285 282 281 280 280 279 276 274 272 269 267 266 266 266 266 265 265 265 267 268 270 271 272 273 274 274 275 275
291 292 290 290 291 290 289 288 287 285 285 282 281 281 280 277 275 274 272 271 269 269 268 267 266 266 266 266 266 267 268 270 271 272 272 274 275 276
291 290 289 289 289 289 289 288 288 286 284 284 282 283 280 276 275 273 272 271 271 270 272 270 268 265 265 265 265 266 267 269 270 271 271 273 275 275
293 290 287 288 288 288 288 288 288 286 283 282 282 283 281 278 276 275 272 271 272 272 272 271 269 267 266 265 266 265 265 267 268 268 270 271 274 276
293 293 290 288 288 288 287 285 284 283 282 281 280 280 279 278 277 276 275 272 271 272 273 272 271 270 268 268 267 266 266 266 267 268 269 270 272 275
294 294 292 289 289 289 288 286 284 283 281 281 280 279 278 277 276 275 275 274 273 272 273 273 272 272 270 270 269 268 266 265 265 266 268 269 271 273
295 295 292 290 289 288 288 286 285 283 281 281 281 281 278 277 276 275 275 274 273 272 272 273 274 272 271 270 270 268 266 264 264 265 267 269 271 272
293 294 292 290 288 287 287 287 286 285 283 282 282 280 279 277 275 274 273 273 272 271 271 271 273 274 273 271 270 268 267 266 266 265 266 268 270 269
294 293 291 291 290 289 288 287 286 286 284 282 282 281 278 277 276 275 274 273 273 272 270 271 273 272 273 273 271 270 269 268 267 265 265 268 270 271
296 295 294 293 291 290 289 288 286 285 284 282 280 278 275 275 276 274 271 272 272 272 271 269 270 272 273 272 271 270 270 268 266 263 265 267 268 271
296 295 294 294 294 293 290 288 287 285 284 283 279 276 274 274 275 275 274 274 273 272 269 267 268 271 273 272 271 270 270 270 267 264 265 266 267 267
297 295 294 294 293 293 291 288 288 288 287 284 281 278 276 275 274 275 276 273 271 269 267 266 268 270 271 270 270 269 270 271 268 263 264 265 266 266
297 296 296 294 292 292 290 289 289 289 288 286 283 281 279 278 276 275 273 270 268 267 266 266 266 267 267 267 267 269 269 269 269 265 263 263 263 263
296 296 296 295 293 292 292 291 290 290 289 287 286 285 283 280 278 276 274 272 271 268 266 265 266 267 267 266 266 267 268 268 269 269 266 264 263 262
295 295 295 295 295 295 294 293 291 288 288 288 287 286 285 283 280 277 275 273 272 270 267 265 266 267 267 266 266 265 266 268 268 268 266 265 262 261
295 295 295 295 296 295 295 294 291 288 286 287 288 288 287 284 281 279 276 276 275 273 271 270 270 269 269 268 267 267 267 269 269 268 265 264 262 260
296 296 296 296 296 296 296 294 291 290 289 288 288 288 287 285 281 277 277 277 277 276 276 275 274 274 273 271 270 269 268 269 268 267 264 262 261 259
296 297 296 295 295 296 297 296 293 291 291 289 290 289 287 284 282 279 276 275 276 278 276 276 275 275 275 274 273 271 270 268 266 265 262 260 260 259
Height
5838 5838 5837 5837 5836 5835 5834 5834 5834 5833 5833 5833 5832 5832 5832 5832 5833 5833 5834 5834 5834 5834 5836 5836 5837 5838 5838 5839 5840 5840 5840 5840 5840 5840 5840 5840 5839 5839
5835 5834 5833 5832 5832 5831 5830 5829 5828 5828 5828 5827 5827 5826 5826 5827 5827 5827 5828 5828 5828 5829 5830 5830 5831 5832 5832 5833 5833 5834 5834 5834 5834 5834 5834 5834 5834 5833
5830 5829 5829 5828 5827 5826 5825 5824 5823 5822 5822 5821 5820 5820 5820 5820 5821 5821 5822 5822 5823 5823 5823 5824 5824 5825 5826 5826 5827 5827 5828 5828 5828 5828 5828 5828 5828 5827
5826 5825 5824 5823 5822 5821 5820 5819 5818 5817 5816 5815 5814 5814 5814 5813 5814 5814 5814 5815 5816 5816 5817 5817 5817 5818 5819 5819 5820 5820 5821 5821 5821 5821 5821 5821 5821 5821
5820 5819 5818 5817 5816 5815 5814 5813 5811 5810 5809 5809 5808 5808 5808 5807 5807 5807 5807 5807 5808 5809 5810 5810 5810 5811 5811 5812 5813 5813 5814 5814 5814 5814 5815 5815 5815 5815
5815 5813 5812 5811 5810 5809 5807 5806 5805 5804 5803 5802 5801 5801 5800 5799 5799 5799 5799 5800 5800 5801 5802 5802 5803 5803 5804 5804 5806 5806 5806 5807 5807 5807 5807 5808 5808 5808
5808 5807 5805 5804 5803 5802 5801 5799 5798 5797 5796 5795 5794 5794 5793 5792 5792 5792 5792 5792 5793 5793 5793 5794 5795 5795 5796 5797 5797 5798 5799 5799 5800 5800 5800 5801 5801 5800
5801 5799 5798 5798 5796 5795 5794 5792 5791 5790 5789 5788 5787 5786 5785 5784 5784 5784 5784 5785 5785 5786 5786 5786 5787 5787 5788 5789 5790 5790 5791 5791 5792 5792 5792 5793 5793 5793
5794 5792 5791 5790 5789 5788 5786 5785 5784 5782 5781 5781 5780 5778 5778 5777 5777 5777 5776 5777 5778 5778 5778 5778 5778 5779 5780 5781 5782 5782 5783 5783 5784 5784 5785 5785 5785 5785
5787 5785 5784 5783 5782 5780 5779 5777 5776 5775 5774 5773 5772 5771 5770 5769 5769 5769 5769 5769 5769 5770 5770 5770 5770 5770 5771 5772 5773 5773 5774 5775 5775 5776 5777 5777 5777 5777
5779 5778 5776 5775 5774 5772 5770 5769 5767 5766 5765 5764 5763 5762 5761 5761 5760 5760 5760 5760 5761 5761 5761 5761 5761 5762 5763 5763 5764 5764 5764 5765 5766 5767 5768 5768 5768 5768
5771 5770 5768 5767 5765 5764 5762 5760 5759 5758 5756 5756 5755 5754 5753 5752 5752 5752 5752 5751 5752 5752 5753 5753 5753 5753 5754 5755 5755 5755 5755 5756 5757 5758 5759 5759 5760 5760
5763 5761 5759 5758 5757 5755 5753 5752 5750 5749 5748 5747 5746 5745 5744 5744 5743 5743 5742 5742 5743 5743 5744 5744 5744 5744 5745 5745 5746 5746 5746 5746 5748 5749 5750 5750 5751 5751
5755 5753 5751 5749 5748 5746 5744 5743 5741 5740 5739 5738 5737 5737 5736 5735 5734 5734 5734 5733 5733 5734 5734 5734 5735 5735 5736 5736 5737 5737 5737 5738 5739 5740 5740 5741 5741 5742
5747 5745 5743 5741 5739 5737 5735 5734 5732 5731 5730 5729 5728 5727 5726 5726 5725 5725 5725 5724 5724 5725 5725 5725 5725 5726 5726 5726 5727 5728 5728 5729 5730 5731 5732 5732 5733 5733
5739 5737 5734 5732 5730 5728 5726 5725 5723 5722 5720 5719 5718 5717 5716 5716 5716 5715 5715 5715 5715 5715 5715 5715 5716 5716 5717 5717 5718 5718 5719 5720 5721 5722 5723 5723 5723 5724
5731 5729 5726 5724 5722 5720 5718 5716 5714 5712 5711 5709 5708 5706 5706 5706 5705 5705 5704 5704 5704 5704 5705 5706 5706 5706 5707 5708 5708 5709 5710 5711 5711 5712 5713 5714 5714 5715
5723 5720 5718 5715 5713 5711 5709 5707 5705 5703 5701 5699 5697 5696 5696 5695 5694 5694 5693 5693 5693 5694 5695 5696 5697 5697 5698 5699 5699 5699 5700 5701 5702 5702 5702 5704 5705 5705
5714 5712 5710 5707 5704 5702 5700 5697 5695 5693 5691 5689 5688 5686 5686 5685 5684 5684 5683 5683 5683 5684 5685 5686 5686 5687 5688 5689 5690 5690 5690 5691 5691 5692 5693 5694 5695 5696
5706 5703 5701 5698 5696 5693 5691 5688 5686 5684 5682 5681 5679 5677 5676 5675 5675 5674 5674 5674 5675 5675 5676 5676 5676 5677 5677 5679 5679 5680 5680 5681 5681 5682 5683 5683 5684 5685
5697 5695 5692 5690 5687 5685 5682 5680 5677 5675 5674 5672 5671 5669 5668 5666 5666 5665 5665 5666 5666 5666 5666 5667 5667 5667 5667 5668 5669 5670 5670 5670 5671 5672 5673 5673 5674 5675
5689 5686 5684 5681 5679 5676 5674 5671 5669 5668 5666 5664 5663 5661 5659 5658 5657 5657 5657 5657 5657 5657 5657 5658 5657 5657 5657 5658 5658 5659 5660 5660 5661 5661 5662 5664 5665 5666
5680 5678 5675 5673 5671 5668 5666 5664 5662 5660 5658 5656 5655 5653 5651 5650 5649 5649 5648 5648 5648 5648 5648 5648 5648 5648 5648 5648 5649 5649 5650 5650 5650 5651 5653 5654 5655 5657